Location: Helsinki
(60.1699°N, 24.9384°E)
Time: 20:27:18
(UTC+02:00)

Transit 2A Rocket - Pass Details

Date: 25 September 2023
Orbit: 593 x 903 km, 66.7° (Epoch: 28 November)

Event Time Altitude Azimuth Distance (km) Brightness Sun altitude
Rises 17:10:23 0° 226° (SW) 3,286 9.8 13.8°
Reaches altitude 10° 17:12:54 10° 225° (SW) 2,310 9.3 13.5°
Maximum altitude 17:18:09 82° 140° (SE) 733 5.2 12.9°
Drops below altitude 10° 17:22:58 10° 53° (NE) 2,116 6.7 12.4°
Sets 17:25:11 0° 52° (NE) 2,990 7.4 12.1°
